Cosmos 389 Rocket - Orbit

View from above orbital plane
View from above orbital plane
View from above satellite
View from above satellite

Ground track
Ground track

The orbit data is extracted from the following two-line orbital elements,

1 04814U 70113B   13140.15776689  .00005849  00000-0  27076-3 0  1923
2 04814 081.1494 355.3438 0037040 100.6441 259.8964 15.19324203307257
Epoch (UTC): 20 May 2013 03:47:11
Eccentricity: 0.0037040
inclination: 81.1494°
perigee height: 482 km
apogee height: 533 km
right ascension of ascending node: 355.3438°
argument of perigee: 100.6441°
revolutions per day: 15.19324203
mean anomaly at epoch: 259.8964°
orbit number at epoch: 30725

The dashed part of the orbit path shows where the satellite is in the earth's shadow,  

Developed and maintained by Chris Peat, Heavens-Above GmbH. Please read the updated FAQ before sending e-mail. Imprint. DLR